DW4338 Bergen NO current weather conditions

sailwx.info

Wind from 164 at 31 knots gusting 59

Air temperature 10.0° C
Dewpoint 8.1° C

Last reported at 2014-Oct-25 10:42 UTC.
Time now 2014-Oct-25 11:55 UTC

Location: N 60°31' E 004°54'.
View on Google Maps.

See reports from other nearby stations

  
Tides and Currents Weather Stations Pressure Air Temp Water Temp Dewpoint Dewpoint Depression Visibility Wind Speed Wind Dir Waves Ship Positions
date/time (UTC)wind fromknots sea level pressurealtimeterstation pressurevisibilityair tempwater tempwave heightnotes
2014-Oct-25 10:42 164 31 gusting 59 10.0
2014-Oct-25 10:26 090 29 gusting 56 9.4
2014-Oct-25 10:11 148 22 gusting 54 9.4
2014-Oct-25 09:56 227 36 gusting 66 10.0
2014-Oct-25 09:40 130 25 gusting 54 10.6
2014-Oct-25 09:25 219 23 gusting 58 10.0
2014-Oct-25 09:10 213 26 gusting 53 10.0
2014-Oct-25 08:55 205 19 gusting 62 10.0
2014-Oct-25 08:40 184 24 gusting 52 10.6
2014-Oct-25 08:25 205 26 gusting 50 10.6
2014-Oct-25 08:10 236 27 gusting 46 10.6
2014-Oct-25 07:54 131 19 gusting 43 10.0
2014-Oct-25 07:39 142 19 gusting 52 10.6
2014-Oct-25 07:24 143 22 gusting 61 10.0
2014-Oct-25 07:09 132 26 gusting 47 10.0
2014-Oct-25 06:55 150 23 gusting 40 10.6
2014-Oct-25 06:38 234 28 gusting 58 10.6
2014-Oct-25 06:23 193 22 gusting 40 10.6
2014-Oct-25 06:08 143 22 gusting 44 10.6
2014-Oct-25 05:53 213 20 gusting 57 10.6
2014-Oct-25 05:38 198 20 gusting 49 10.6
2014-Oct-25 05:23 155 23 gusting 43 10.0
2014-Oct-25 05:08 202 19 gusting 41 10.0
2014-Oct-25 04:52 194 18 gusting 45 10.0
2014-Oct-25 04:37 215 26 gusting 48 10.0
2014-Oct-25 04:22 219 21 gusting 40 10.0
2014-Oct-25 04:07 191 26 gusting 46 10.0
2014-Oct-25 03:52 185 30 gusting 49 10.0
2014-Oct-25 03:36 202 22 gusting 42 10.0
2014-Oct-25 03:21 222 18 gusting 46 10.0
2014-Oct-25 03:06 190 14 gusting 37 10.0
2014-Oct-25 02:51 190 17 gusting 39 10.0
2014-Oct-25 02:37 203 19 gusting 36 10.0
2014-Oct-25 02:21 226 19 gusting 42 10.0
2014-Oct-25 02:06 209 27 gusting 46 10.0
2014-Oct-25 01:50 220 26 gusting 39 10.0
2014-Oct-25 01:35 210 18 gusting 38 10.0
2014-Oct-25 01:20 215 23 gusting 39 9.4
2014-Oct-25 01:05 165 13 gusting 32 9.4
2014-Oct-25 00:49 191 16 gusting 40 9.4
2014-Oct-25 00:34 209 24 gusting 39 9.4
2014-Oct-25 00:19 223 18 gusting 39 8.9
2014-Oct-25 00:05 219 19 gusting 42 8.9
2014-Oct-24 23:50 235 23 gusting 52 8.9
2014-Oct-24 23:34 188 19 gusting 39 8.3
2014-Oct-24 23:19 219 14 gusting 28 8.9
2014-Oct-24 23:03 165 11 gusting 38 8.3
2014-Oct-24 22:48 167 15 gusting 35 8.3
2014-Oct-24 22:33 205 21 gusting 41 8.3
2014-Oct-24 22:18 209 28 gusting 51 9.4
2014-Oct-24 22:03 212 21 gusting 39 9.4
2014-Oct-24 21:48 158 12 gusting 39 9.4
2014-Oct-24 21:32 164 14 gusting 31 9.4
2014-Oct-24 21:17 222 19 gusting 39 8.9
2014-Oct-24 21:02 128 19 gusting 43 8.9
2014-Oct-24 20:47 179 22 gusting 45 8.9
2014-Oct-24 20:32 285 19 gusting 49 10.0
2014-Oct-24 20:16 198 18 gusting 52 10.6
2014-Oct-24 20:02 191 27 gusting 49 10.6
2014-Oct-24 19:46 171 14 gusting 47 10.6
2014-Oct-24 19:32 143 14 gusting 33 10.6
2014-Oct-24 19:16 179 14 gusting 39 10.6
2014-Oct-24 19:02 200 18 gusting 48 10.6
2014-Oct-24 18:45 223 29 gusting 44 10.0
2014-Oct-24 18:30 236 19 gusting 39 10.0
2014-Oct-24 18:15 207 23 gusting 46 10.0
2014-Oct-24 18:00 211 23 gusting 50 10.0
2014-Oct-24 17:45 179 21 gusting 39 10.0
2014-Oct-24 17:30 219 23 gusting 39 10.0
2014-Oct-24 17:14 268 31 gusting 53 10.0
2014-Oct-24 16:59 205 24 gusting 39 10.6
2014-Oct-24 16:44 186 11 gusting 36 10.6
2014-Oct-24 16:29 260 13 gusting 26 10.0
2014-Oct-24 16:14 148 13 gusting 34 10.0
2014-Oct-24 15:59 149 15 gusting 26 10.0
2014-Oct-24 15:43 194 8 gusting 23 10.0
2014-Oct-24 15:29 142 13 gusting 26 10.0
2014-Oct-24 15:13 209 6 gusting 19 10.0
2014-Oct-24 14:58 202 13 gusting 23 10.6
2014-Oct-24 14:12 203 12 gusting 30 11.1
2014-Oct-24 13:57 242 9 gusting 32 11.1
2014-Oct-24 13:43 207 16 gusting 30 11.1
2014-Oct-24 13:27 217 19 gusting 29 11.1
2014-Oct-24 13:12 216 20 gusting 36 11.1
2014-Oct-24 12:57 213 13 gusting 29 11.1
2014-Oct-24 12:41 225 14 gusting 35 11.1
2014-Oct-24 12:26 182 16 gusting 33 11.1
2014-Oct-24 12:11 194 21 gusting 35 11.1
2014-Oct-24 11:56 231 13 gusting 29 11.1
2014-Oct-24 11:41 195 15 gusting 32 11.1
2014-Oct-24 11:26 232 19 gusting 35 11.1
2014-Oct-24 11:10 210 16 gusting 41 11.1
2014-Oct-24 10:55 207 17 gusting 34 11.1
2014-Oct-24 10:40 219 13 gusting 26 11.1
2014-Oct-24 10:25 224 13 gusting 34 11.1
2014-Oct-24 10:10 213 14 gusting 26 11.1
2014-Oct-24 09:55 212 12 gusting 22 11.1
2014-Oct-24 09:40 213 14 gusting 23 11.1
2014-Oct-24 09:25 233 18 gusting 26 11.1
2014-Oct-24 09:09 206 9 gusting 26 11.1
2014-Oct-24 08:54 266 12 gusting 26 11.1
2014-Oct-24 08:39 238 9 gusting 23 11.1
2014-Oct-24 08:26 235 9 gusting 23 11.1
2014-Oct-24 08:10 217 11 gusting 24 11.1
2014-Oct-24 07:54 275 15 gusting 34 10.6
2014-Oct-24 07:39 242 18 gusting 26 10.6
2014-Oct-24 07:24 240 12 gusting 28 10.6
2014-Oct-24 07:09 234 11 gusting 30 10.6
2014-Oct-24 06:53 269 19 gusting 33 10.6
2014-Oct-24 06:38 251 19 gusting 34 10.6
2014-Oct-24 06:23 257 21 gusting 39 11.1
2014-Oct-24 06:07 271 19 gusting 35 11.1
2014-Oct-24 05:53 252 20 gusting 39 11.1
2014-Oct-24 05:38 252 19 gusting 32 11.1
2014-Oct-24 05:23 261 19 gusting 42 11.1
2014-Oct-24 05:06 239 16 gusting 39 11.1
2014-Oct-24 04:51 273 21 gusting 40 11.1
2014-Oct-24 04:36 267 21 gusting 39 11.1
2014-Oct-24 04:21 282 19 gusting 46 11.7
2014-Oct-24 04:07 237 24 gusting 53 11.7
2014-Oct-24 03:51 227 21 gusting 47 11.7
2014-Oct-24 03:35 230 24 gusting 46 11.7
2014-Oct-24 03:20 221 23 gusting 39 11.7
2014-Oct-24 03:06 190 26 gusting 46 11.7
2014-Oct-24 02:50 217 32 gusting 51 11.7
2014-Oct-24 02:35 240 28 gusting 53 11.7
2014-Oct-24 02:21 232 29 gusting 51 11.7
2014-Oct-24 02:05 232 27 gusting 53 11.7
2014-Oct-24 01:50 213 28 gusting 49 11.7
2014-Oct-24 01:34 153 21 gusting 55 11.7
2014-Oct-24 01:19 153 28 gusting 47 11.7
2014-Oct-24 01:04 189 24 gusting 57 11.7
2014-Oct-24 00:51 164 30 gusting 69 11.1
2014-Oct-24 00:33 130 28 gusting 51 11.1
2014-Oct-24 00:18 126 26 gusting 66 11.1
2014-Oct-24 00:03 163 25 gusting 59 11.1
2014-Oct-23 23:48 148 28 gusting 62 11.1
2014-Oct-23 23:34 194 30 gusting 59 11.1
2014-Oct-23 23:18 157 24 gusting 62 11.1
2014-Oct-23 23:02 144 35 gusting 70 11.1
2014-Oct-23 22:47 131 27 gusting 60 11.1
2014-Oct-23 22:32 123 33 gusting 63 11.1
2014-Oct-23 22:17 189 25 gusting 56 11.1
2014-Oct-23 22:03 148 26 gusting 51 11.1
2014-Oct-23 21:48 229 24 gusting 65 11.1
2014-Oct-23 21:31 155 26 gusting 50 11.1
2014-Oct-23 21:16 174 22 gusting 47 11.1
2014-Oct-23 21:01 111 25 gusting 48 11.1
2014-Oct-23 20:46 146 25 gusting 49 11.1
2014-Oct-23 20:32 174 22 gusting 53 11.1
2014-Oct-23 20:16 200 23 gusting 42 11.1
2014-Oct-23 20:00 198 16 gusting 36 11.1
2014-Oct-23 19:45 093 18 gusting 53 11.1
2014-Oct-23 19:30 128 23 gusting 53 11.1
2014-Oct-23 19:15 077 21 gusting 44 11.1
2014-Oct-23 19:00 238 24 gusting 54 11.1
2014-Oct-23 18:47 145 26 gusting 49 11.1
2014-Oct-23 18:29 131 26 gusting 57 11.1
2014-Oct-23 18:14 121 27 gusting 53 11.1
2014-Oct-23 17:59 141 27 gusting 55 11.1
2014-Oct-23 17:44 136 25 gusting 72 11.1
2014-Oct-23 17:29 132 25 gusting 61 11.1
2014-Oct-23 17:14 123 26 gusting 58 11.1
2014-Oct-23 16:58 166 26 gusting 53 11.1
2014-Oct-23 16:43 235 20 gusting 41 11.1
2014-Oct-23 16:28 156 18 gusting 44 11.1
2014-Oct-23 16:14 153 21 gusting 35 11.1
2014-Oct-23 15:58 117 19 gusting 34 11.1
2014-Oct-23 15:43 161 19 gusting 33 11.1
2014-Oct-23 15:28 183 17 gusting 38 11.1
2014-Oct-23 15:12 213 18 gusting 34 11.1
2014-Oct-23 14:57 214 23 gusting 41 10.6
2014-Oct-23 14:42 213 17 gusting 39 11.1
2014-Oct-23 14:27 152 18 gusting 39 10.6
2014-Oct-23 14:12 213 17 gusting 45 11.1
2014-Oct-23 13:56 199 25 gusting 44 11.1
2014-Oct-23 13:41 214 28 gusting 53 11.1
2014-Oct-23 13:26 205 23 gusting 40 11.1
2014-Oct-23 13:11 219 21 gusting 39 11.1
2014-Oct-23 12:56 223 33 gusting 56 11.1
2014-Oct-23 12:41 210 28 gusting 41 11.1
2014-Oct-23 12:25 142 24 gusting 45 11.1
2014-Oct-23 12:10 217 25 gusting 48 11.1
2014-Oct-23 11:55 088 21 gusting 43 11.1
2014-Oct-23 11:40 169 19 gusting 46 11.1
2014-Oct-23 11:25 153 18 gusting 37 11.1
2014-Oct-23 11:10 214 19 gusting 43 11.1